Location: Bush Observatory
(40.2653°N, 94.3194°W)
Time: 03:43:00
(UTC-05:00)

Daily predictions for brighter satellites

Satellite Brightness Start Highest point End
(mag) Time Altitude Azimuth Time Altitude Azimuth Time Altitude Azimuth
CZ-4C R/B 4.1 00:07:58 17° E 00:07:58 17° E 00:09:57 10° ENE
Nadezhda 4 Rocket 4.0 00:05:54 59° SSW 00:07:11 80° W 00:13:34 10° N
ATLAS 3B R/B 3.6 00:05:43 10° SW 00:13:12 52° NW 00:20:31 10° NNE
Meteor 2-5 Rocket 3.9 00:16:45 62° E 00:16:49 62° E 00:22:33 10° NNE
Cosmos 2208 Rocket 3.9 00:13:50 10° NNW 00:18:49 81° NNE 00:18:49 81° NNE
CZ-4B R/B 3.6 00:24:16 26° NNE 00:24:16 26° NNE 00:26:16 10° N
Cosmos 614 Rocket 4.1 00:23:29 66° NE 00:23:29 66° NE 00:28:06 10° NNE
Cosmos 1943 Rocket 2.3 00:18:22 10° NNW 00:23:46 61° WSW 00:23:46 61° WSW
ISS -0.5 00:35:41 18° NNW 00:35:55 18° NNW 00:38:17 10° NNE
H-2A R/B 4.2 00:40:36 14° W 00:41:05 14° W 00:43:34 10° WNW
Cosmos 1656 Rocket 3.6 00:37:18 10° NNW 00:42:55 86° NW 00:42:55 86° NW
Cosmos 1741 Rocket 4.3 00:43:42 59° WNW 00:43:53 59° WNW 00:49:09 10° NNE
USA 238 DEB 3.9 00:42:40 40° WSW 00:45:19 68° NW 00:52:23 10° NNE
USA 238 3.9 00:42:47 41° WSW 00:45:24 69° NW 00:52:28 10° NNE
Cosmos 2026 Rocket 3.7 00:47:05 82° SSE 00:47:21 85° E 00:53:26 10° N
Cosmos 2195 Rocket 4.3 00:47:12 77° SW 00:47:40 84° W 00:53:55 10° N
Atlas Centaur 2 4.2 00:39:56 10° WSW 00:43:36 26° WSW 00:43:36 26° WSW
Cosmos 1470 4.4 00:44:17 10° NNW 00:46:34 31° NW 00:46:34 31° NW
Cosmos 1627 Rocket 4.3 00:48:20 78° SW 00:48:43 83° W 00:54:52 10° N
Cosmos 2228 Rocket 4.5 00:47:52 10° N 00:51:02 31° NE 00:51:02 31° NE
CZ-2C R/B 3.8 00:48:57 10° NNE 00:53:23 33° E 00:53:23 33° E
Cosmos 2369 Rocket 4.5 00:52:55 10° WNW 00:54:43 12° W 00:54:55 11° W
Cosmos 2221 3.5 00:52:14 10° N 00:55:19 46° NNW 00:55:19 46° NNW
H-2A R/B 3.8 00:54:13 10° N 00:56:37 34° NNW 00:56:37 34° NNW
Cosmos 1607 4.3 01:07:18 47° W 01:08:45 58° NW 01:14:53 10° NNE
Meteor 1-16 Rocket 4.3 01:03:33 10° NNW 01:08:54 69° W 01:08:54 69° W
ALOS 2 4.0 01:19:23 33° NW 01:19:23 33° NW 01:22:12 10° NNW
SL-8 R/B 4.3 01:13:25 10° NW 01:17:22 53° NNW 01:17:22 53° NNW
NOSS 3-2 (C) 3.3 01:19:35 75° ESE 01:19:37 75° ESE 01:26:14 10° NE
Cosmos 2278 3.9 01:16:17 10° NNW 01:21:53 61° ENE 01:22:14 60° E
CENTAUR R/B 4.2 01:24:16 18° E 01:24:16 18° E 01:28:03 10° ENE
Cosmos 468 Rocket 4.2 01:24:55 10° NNW 01:29:33 68° NW 01:29:33 68° NW
Cosmos 1553 Rocket 4.0 01:24:49 10° NNW 01:31:07 71° W 01:31:29 69° WSW
Cosmos 1814 Rocket 4.1 01:29:02 10° NNW 01:33:47 72° NNW 01:33:47 72° NNW
Cosmos 2082 Rocket 2.6 01:43:09 50° E 01:43:09 50° E 01:48:17 10° NNE
Cosmos 1818 3.6 01:37:31 10° NNW 01:43:01 75° ENE 01:43:01 75° ENE
Cosmos 2315 Rocket 4.4 01:38:10 10° N 01:44:23 54° E 01:45:31 48° ESE
Cosmos 1486 Rocket 4.1 01:45:14 69° NW 01:45:14 69° NW 01:50:05 10° NNE
Cosmos 1697 Rocket 4.0 01:42:46 10° N 01:47:56 35° ENE 01:50:19 25° ESE
Meteor 2-20 Rocket 4.3 01:53:11 77° SSE 01:53:38 84° E 01:59:50 10° N
CZ-4C R/B 2.5 01:53:07 53° WNW 01:53:44 56° NW 01:59:38 10° NNE
Cosmos 1833 Rocket 3.1 01:56:30 51° ESE 01:56:30 51° ESE 02:01:48 10° NNE
Timation 2 Rocket 4.2 01:56:22 60° WSW 01:57:36 74° WNW 02:04:27 10° NNE
ASTEX 1 4.0 01:52:53 10° NNE 01:57:30 47° E 01:57:30 47° E
Cosmos 2266 Rocket 3.9 01:59:06 67° SW 01:59:47 74° W 02:06:13 10° N
NOSS 3-2 (A) 4.2 02:03:41 36° W 02:05:38 47° NW 02:12:05 10° NNE
Cosmos 1151 Rocket 3.7 02:01:28 10° N 02:04:47 52° NNE 02:04:47 52° NNE
Cosmos 1674 4.1 02:12:37 37° NNE 02:12:37 37° NNE 02:14:59 10° N
Cosmos 724 4.1 02:12:50 76° SE 02:13:03 78° ESE 02:18:56 10° NNE
ISS 0.2 02:12:15 10° NNW 02:13:23 11° N 02:14:31 10° NNE
H-2A R/B 4.0 02:15:26 22° ESE 02:15:26 22° ESE 02:21:03 10° E
Cosmos 1763 Rocket 3.6 02:09:35 10° NNW 02:14:25 66° WNW 02:14:25 66° WNW
Cosmos 2151 3.6 02:16:27 55° NNE 02:16:27 55° NNE 02:19:54 10° NNE
Cosmos 1867 3.6 02:16:04 65° WNW 02:16:23 66° NW 02:21:52 10° NNE
Meteor 2-2 Rocket 4.2 02:11:55 10° NNW 02:17:35 69° W 02:17:44 68° WSW
Cosmos 2058 3.9 02:19:43 41° ENE 02:19:43 41° ENE 02:23:08 10° NNE
Cosmos 1726 4.2 02:16:52 10° NNE 02:19:43 21° ENE 02:19:43 21° ENE
PSLV R/B 4.3 02:15:22 10° NNE 02:19:33 50° E 02:19:33 50° E
CZ-2C R/B 3.2 02:20:27 64° W 02:20:27 64° W 02:25:58 10° NNW
Sich 1 4.3 02:23:34 32° E 02:23:35 32° E 02:27:32 10° NNE
Cosmos 540 Rocket 4.3 02:19:43 10° N 02:24:43 47° ENE 02:26:15 36° ESE
Cosmos 1656 3.5 02:22:48 10° NNW 02:28:33 87° WSW 02:29:08 73° S
Cosmos 1354 Rocket 4.3 02:29:28 54° W 02:29:46 55° WNW 02:35:00 10° N
USA 32 3.9 02:27:26 10° N 02:32:43 84° W 02:32:57 81° SW
USA 215 3.2 02:27:15 10° NE 02:33:49 73° SE 02:35:15 56° SSW
CZ-2C R/B 3.7 02:29:14 10° N 02:34:06 32° WNW 02:34:55 31° W
Lacrosse 5 rocket 4.4 02:34:42 10° NNW 02:37:34 17° NNE 02:40:29 10° ENE
Cosmos 1503 Rocket 4.4 02:37:07 48° W 02:37:34 49° WNW 02:42:45 10° N
SL-08 R/B 4.5 02:37:04 29° ESE 02:38:51 39° ENE 02:43:23 10° N
Cosmos 2322 Rocket 4.3 02:34:27 10° N 02:38:55 23° NE 02:43:21 10° ESE
Meteor 1-11 4.4 02:44:34 54° SSE 02:45:48 70° E 02:51:35 10° NNE
Meteor 2-11 Rocket 4.4 02:43:56 10° NNW 02:50:05 75° W 02:51:23 56° SSW
Cosmos 2344 4.1 02:48:00 32° WSW 02:51:42 57° NW 03:00:30 10° NNE
SL-08 R/B 4.3 02:50:17 55° S 02:51:46 87° E 02:57:55 10° N
IRAS Rocket 4.1 02:46:42 10° NNE 02:52:14 86° ESE 02:53:14 61° S
Cosmos 841 Rocket 4.5 02:47:38 10° NW 02:51:32 32° W 02:51:32 32° W
Cosmos 1437 4.1 02:53:54 41° NNE 02:53:54 41° NNE 02:56:12 10° NNE
Lacrosse 5 2.4 02:52:00 10° NW 02:56:59 57° NE 03:01:57 10° ESE
Cosmos 2242 Rocket 3.8 02:54:21 10° N 02:58:44 64° E 02:59:19 57° ESE
Cosmos 968 Rocket 4.0 02:58:51 43° SE 02:59:54 50° ESE 03:04:51 10° NNE
Cosmos 1437 Rocket 4.4 02:58:28 10° NNW 03:00:32 24° NW 03:00:32 24° NW
Cosmos 783 Rocket 4.4 02:58:48 10° NNW 03:04:05 70° WSW 03:04:49 61° SSW
Cosmos 1805 Rocket 4.0 03:08:20 47° WNW 03:08:20 47° WNW 03:12:34 10° N
Cosmos 1980 Rocket 2.1 03:04:57 10° NNW 03:10:36 84° WSW 03:12:46 39° SSE
Cosmos 1538 Rocket 4.4 03:06:37 10° NNW 03:11:48 62° ENE 03:15:04 23° SE
CENTAUR R/B 2.6 03:11:26 44° SW 03:13:33 73° NW 03:20:24 10° NNE
Cosmos 1300 3.4 03:10:47 10° NNW 03:13:48 44° NW 03:13:48 44° NW
ERS-2 2.5 03:13:40 10° N 03:17:04 54° NW 03:17:04 54° NW
Cosmos 1633 Rocket 3.1 03:17:42 60° WSW 03:18:00 62° W 03:22:25 10° N
Cosmos 1707 Rocket 4.3 03:18:39 10° NNW 03:22:21 37° W 03:22:21 37° W
CZ-2D R/B 3.8 03:19:44 10° NE 03:24:06 26° E 03:27:57 12° SSE
Cosmos 1666 Rocket 4.1 03:24:51 41° W 03:25:00 41° WNW 03:29:07 10° N
Cosmos 2082 Rocket 3.8 03:24:59 19° W 03:27:11 24° NW 03:31:44 10° N
NPP 3.7 03:21:59 10° N 03:27:21 68° WNW 03:29:02 43° SW
SL-16 R/B 3.6 03:23:06 10° SE 03:28:57 44° ENE 03:34:50 10° N
Cosmos 1777 Rocket 4.4 03:27:17 34° SSE 03:29:23 58° ESE 03:34:35 10° NNE
H-2A ROCKET BODY 3.7 03:33:12 14° SE 03:33:12 14° SE 03:33:43 10° SE
Cosmos 371 Rocket 3.2 03:25:26 10° NNW 03:30:19 88° ENE 03:32:38 31° SSE
Cosmos 1697 Rocket 3.4 03:26:48 10° NW 03:31:49 33° WSW 03:32:00 33° WSW
Aureole 1 Rocket 4.2 03:27:55 10° NW 03:32:13 34° WSW 03:32:16 34° WSW
CBERS-1 4.0 03:28:18 10° N 03:33:24 71° WNW 03:35:02 43° SW
ADEOS 3.5 03:28:44 10° NNE 03:34:00 84° ESE 03:36:06 37° S
Cosmos 1470 Rocket 3.5 03:34:12 51° SSW 03:35:19 85° W 03:39:47 10° N
Abrixas 4.4 03:35:25 22° NW 03:36:15 26° NNW 03:38:55 10° NE
Cosmos 773 Rocket 4.4 03:34:07 10° NNW 03:39:13 61° ENE 03:44:18 10° SSE
Cosmos 1933 Rocket 3.4 03:39:02 49° SSW 03:40:08 78° W 03:44:33 10° N
Cosmos 1833 Rocket 4.2 03:38:11 18° W 03:40:34 24° NW 03:45:06 10° N
IRS-1D 4.3 03:35:36 10° NNE 03:40:47 49° E 03:44:11 20° SSE
Cosmos 1455 2.3 03:38:22 10° N 03:42:10 70° E 03:43:33 36° SSE
ARIANE 5 R/B 3.0 03:37:52 10° NNE 03:42:54 56° E 03:45:48 24° S
USA 161 2.6 03:45:55 31° N 03:45:55 31° N 03:47:18 10° N
Meteor 1-4 Rocket 2.5 03:43:29 10° N 03:47:15 83° W 03:48:17 46° S
AQUA 4.2 03:43:08 10° N 03:47:43 48° WNW 03:49:12 35° WSW
ERS-1 4.5 03:42:42 10° NNE 03:47:50 83° ESE 03:50:26 30° S
Cosmos 2292 Rocket 3.2 03:48:35 44° SE 03:49:13 55° E 03:52:27 10° NNE
Cosmos 2360 4.2 03:43:37 10° NNW 03:49:13 58° WSW 03:52:36 24° S
Cosmos 1869 3.4 03:46:16 10° N 03:50:15 74° E 03:52:19 27° SSE
ISS -0.5 03:48:19 10° NNW 03:50:49 20° NNE 03:53:18 10° ENE
UNKNOWN OBJECT B 4.5 03:49:00 10° NE 03:52:18 27° E 03:55:05 13° SSE
ATLAS 5 CENTAUR R/B 2.9 03:50:28 21° SSE 03:52:59 36° ESE 03:57:40 10° NE
Nadezhda 1 Rocket 4.4 03:47:58 10° NNW 03:53:41 41° W 03:56:06 29° SW
Meteor 2-10 4.1 03:48:58 10° NNW 03:54:07 62° W 03:56:56 27° SSW
Cosmos 1726 3.8 03:52:11 10° NW 03:54:23 20° WNW 03:54:23 20° WNW
Cosmos 1709 Rocket 4.0 03:53:02 26° SSW 03:56:45 76° W 04:03:04 10° N
GPS 2-05 Rocket1 4.5 03:58:55 20° SSE 03:58:55 20° SSE 04:01:05 10° ESE
Cosmos 1703 4.3 04:02:49 27° W 04:03:30 29° WNW 04:06:59 10° NNW
Okean O Rocket 3.5 03:59:53 10° NE 04:03:36 26° E 04:07:16 10° SSE
SL-16 R/B 2.1 04:03:51 10° NNW 04:09:32 74° WSW 04:15:10 10° SSE
Cosmos 1933 3.7 04:07:18 10° N 04:11:20 65° E 04:15:18 10° SSE
Cosmos 1626 2.6 04:12:42 32° SW 04:13:52 43° W 04:17:28 10° N
Cosmos 1862 Rocket 4.1 04:11:19 10° NNW 04:15:30 40° W 04:17:26 26° SW
EO 1 Del DPAF 3.3 04:13:37 23° S 04:15:54 61° W 04:19:47 10° NNW
USA 215 4.3 04:10:34 10° NE 04:16:30 38° NNW 04:22:25 10° W
Lacrosse 5 rocket 1.7 04:13:04 10° NW 04:17:30 74° NE 04:22:04 10° SE
UNK 3.6 04:14:46 10° SSE 04:19:21 84° WSW 04:23:57 10° NNW
Cosmos 2112 Rocket 4.2 04:14:13 10° NNW 04:19:25 75° ENE 04:24:36 10° SSE
Cosmos 1271 Rocket 3.6 04:17:35 10° NNW 04:20:54 29° W 04:21:45 26° WSW
Cosmos 2322 Rocket 2.3 04:17:49 10° NNW 04:23:16 52° WSW 04:28:40 10° S
Cosmos 2221 Rocket 3.6 04:19:29 10° N 04:24:00 89° ENE 04:28:32 10° S
Resurs 1-4 Rocket 2.1 04:18:54 10° NNE 04:24:15 85° WNW 04:28:39 15° SSW
SME Rocket 4.1 04:24:38 10° SSE 04:31:54 76° ENE 04:36:44 10° N
BREEZE-M DEB (TANK) 4.0 04:27:10 16° SW 04:36:28 52° SSE 04:40:16 10° ENE
OAO 3 Rocket 3.5 04:34:30 18° WSW 04:37:36 44° S 04:42:06 10° ESE
Lacrosse 5 2.9 04:35:37 10° WNW 04:39:36 24° WSW 04:43:34 10° S
Cosmos 1869 Rocket 3.6 04:36:46 14° SSW 04:40:24 68° W 04:44:49 10° N
Meteor 1-26 Rocket 4.2 04:38:37 10° N 04:44:12 87° E 04:49:43 10° S
Cosmos 2298 Rocket 4.2 04:40:57 10° S 04:46:15 74° ESE 04:51:35 10° NNE
ASTRO F (AKARI) 4.3 04:44:44 10° S 04:48:03 65° WSW 04:51:15 10° NNW
Cosmos 2360 Rocket 2.1 04:49:44 10° NNW 04:55:23 81° WSW 05:01:01 10° SSE
BREEZE-M DEB (TANK) 2.9 04:53:09 10° NW 04:55:54 37° NNE 04:58:01 10° E
In-Cosmos 22 Rocket 4.1 04:54:05 10° S 04:59:23 89° E 05:04:47 10° N
CZ-4B R/B 3.3 04:54:00 10° NNE 04:59:28 80° ESE 05:05:00 10° S
Coronas F rocket 4.4 05:00:28 10° SE 05:02:03 14° E 05:03:38 10° NE
IRS-1C Rocket 4.2 04:58:11 10° N 05:03:26 66° WNW 05:08:39 10° SSW
CZ-2D R/B 2.8 04:59:27 10° N 05:04:14 37° WNW 05:09:03 10° SW
Cosmos 2219 3.3 04:59:11 10° SSW 05:04:54 84° ESE 05:10:41 10° NNE
Nadezhda 3 Rocket 4.2 04:59:28 10° N 05:05:39 76° E 05:11:47 10° SSE
Cosmos 2322 3.7 05:00:07 10° NNW 05:05:49 68° WSW 05:11:29 10° S
Cosmos 2154 Rocket 4.2 05:00:16 10° S 05:06:34 82° E 05:12:57 10° N
Cosmos 1680 Rocket 4.2 05:02:53 10° NW 05:07:31 33° W 05:12:08 10° SSW
SL-16 R/B 3.4 05:07:19 10° SSW 05:12:41 30° W 05:18:05 10° NW
Thor Agena Rocket 3.6 05:09:51 10° S 05:15:05 63° WSW 05:20:21 10° NNW
MOZ.5/SAFIR/RUBIN 5/SL-8 3.8 05:10:49 10° S 05:15:28 79° WSW 05:20:13 10° NNW
Cosmos 1733 Rocket 3.2 05:11:13 10° S 05:15:32 76° E 05:19:53 10° N
CZ-2D R/B 4.2 05:12:45 10° N 05:16:39 38° WNW 05:20:25 10° SW
CZ-4B DEB 4.2 05:12:59 10° NNE 05:18:29 80° WNW 05:24:00 10° SSW
Cosmos 389 Rocket 2.6 05:15:17 10° N 05:18:59 89° E 05:22:41 10° S
USA 229 DEB 3.8 05:13:05 10° SSW 05:20:02 90° WNW 05:27:04 10° NE
USA 229 3.8 05:13:11 10° SSW 05:20:08 89° ESE 05:27:11 10° NE
ARIANE 5 R/B 4.2 05:18:11 10° NNW 05:21:33 18° WNW 05:24:52 10° WSW
PAYLOAD B 4.3 05:16:13 10° N 05:21:41 65° WNW 05:27:07 10° SSW
Cosmos 2333 Rocket 4.4 05:18:31 10° N 05:23:38 33° ENE 05:28:44 10° ESE
ATLAS CENTAUR R/B 2.1 05:22:04 10° NNW 05:26:46 68° NE 05:31:03 10° SE
